Evergreen, AL

5:17 PM CDT on September 26, 2017 (GMT -0500)
Middleton

Weather History for KGZH - August, 2013

Change the Weather History Date:

Friday, August 23, 2013

  Actual Average (KPRN) Record (KPRN)
Temperature  
Mean Temperature 81 °F -  
Max Temperature 89 °F 92 °F 100 °F (1951)
Min Temperature 73 °F 68 °F 62 °F (1931)
Cooling Degree Days 16    
Growing Degree Days 31 (Base 50)    
Moisture  
Dew Point 72 °F    
Average Humidity 82    
Maximum Humidity 96    
Minimum Humidity 57    
Precipitation  
Precipitation 0.00 in - - ()
Sea Level Pressure  
Sea Level Pressure 30.04 in    
Wind  
Wind Speed 2 mph (ESE)    
Max Wind Speed 8 mph    
Max Gust Speed -    
Visibility 8 miles    
Events Fog    
Averages and records for this station are not official NWS values.
T = Trace of Precipitation, MM = Missing Value Source: NWS Daily Summary

Daily Weather History Graph

Daily Weather History Graph

Search for Another Location

Airport or City:

Trip Planner

Search our weather history database for the weather conditions in past years. The results will help you decide how hot, cold, wet, or windy it might be!

Date:

Astronomy

Aug. 23, 2013 Rise Set
Actual Time 6:18 AM CDT 7:22 PM CDT
Civil Twilight 5:53 AM CDT 7:47 PM CDT
Nautical Twilight 5:23 AM CDT 8:16 PM CDT
Astronomical Twilight 4:53 AM CDT 8:47 PM CDT
Moon 8:57 PM CDT (8/23) 8:58 AM CDT (8/23)
Length of Visible Light 13h 53m
Length of Day
13h 03m
Waning Gibbous, 91% of the Moon is Illuminated
Aug 23
Waning Gibbous
Aug 28
Last Quarter
Sep 5
New
Sep 12
First Quarter
Sep 19
Full

Hourly Weather History & Observations

Time (CDT) Temp. Heat Index Dew Point Humidity Pressure Visibility Wind Dir Wind Speed Gust Speed Precip Events Conditions
12:22 AM 75.2 °F - 71.6 °F 89% 30.07 in 10.0 mi Calm Calm - N/A   Partly Cloudy
12:35 AM 75.2 °F - 71.6 °F 89% 30.07 in 10.0 mi Calm Calm - N/A   Mostly Cloudy
12:53 AM 75.0 °F - 72.0 °F 90% 30.06 in 10.0 mi Calm Calm - N/A   Overcast
1:14 AM 73.4 °F - 71.6 °F 94% 30.06 in 10.0 mi SSE 4.6 mph - N/A   Overcast
1:53 AM 75.0 °F - 72.0 °F 90% 30.04 in 10.0 mi ESE 3.5 mph - N/A   Overcast
2:53 AM 73.9 °F - 72.0 °F 93% 30.03 in 2.5 mi ENE 3.5 mph - N/A   Overcast
3:02 AM 73.4 °F - 71.6 °F 94% 30.04 in 0.8 mi Calm Calm - N/A   Overcast
3:53 AM 73.0 °F - 72.0 °F 96% 30.03 in 0.2 mi Calm Calm - N/A Fog Fog
4:49 AM 73.4 °F - 71.6 °F 94% 30.04 in 1.2 mi ESE 3.5 mph - N/A   Overcast
4:53 AM 73.0 °F - 72.0 °F 96% 30.02 in 1.5 mi ESE 3.5 mph - N/A   Overcast
5:07 AM 73.4 °F - 71.6 °F 94% 30.04 in 0.8 mi ESE 4.6 mph - N/A   Mist
5:38 AM 73.4 °F - 71.6 °F 94% 30.04 in 1.0 mi East 4.6 mph - N/A   Mist
5:53 AM 73.0 °F - 71.1 °F 93% 30.03 in 2.5 mi SE 3.5 mph - N/A   Overcast
6:05 AM 73.4 °F - 71.6 °F 94% 30.04 in 1.2 mi Calm Calm - N/A   Overcast
6:19 AM 73.4 °F - 71.6 °F 94% 30.05 in 2.5 mi ENE 3.5 mph - N/A   Overcast
6:28 AM 73.4 °F - 71.6 °F 94% 30.05 in 5.0 mi East 3.5 mph - N/A   Overcast
6:53 AM 73.0 °F - 71.1 °F 93% 30.04 in 10.0 mi Calm Calm - N/A   Overcast
7:53 AM 75.9 °F - 71.1 °F 85% 30.06 in 10.0 mi NNE 3.5 mph - N/A   Mostly Cloudy
8:04 AM 77.0 °F - 71.6 °F 83% 30.07 in 10.0 mi Calm Calm - N/A   Scattered Clouds
8:53 AM 79.0 °F - 72.0 °F 79% 30.07 in 10.0 mi Calm Calm - N/A   Clear
9:53 AM 82.9 °F 88.0 °F 72.0 °F 69% 30.07 in 10.0 mi Calm Calm - N/A   Clear
10:53 AM 84.0 °F 89.0 °F 71.1 °F 65% 30.06 in 10.0 mi East 4.6 mph - N/A   Clear
11:53 AM 87.1 °F 93.6 °F 72.0 °F 61% 30.05 in 10.0 mi ENE 5.8 mph - N/A   Partly Cloudy
12:53 PM 86.0 °F 92.2 °F 72.0 °F 63% 30.04 in 10.0 mi NE 5.8 mph - N/A   Mostly Cloudy
1:06 PM 87.8 °F 93.8 °F 71.6 °F 58% 30.05 in 10.0 mi ESE 6.9 mph - N/A   Scattered Clouds
1:53 PM 89.1 °F 96.0 °F 72.0 °F 57% 30.02 in 10.0 mi Variable 5.8 mph - N/A   Scattered Clouds
2:53 PM 88.0 °F 95.6 °F 73.0 °F 61% 30.01 in 10.0 mi SSE 8.1 mph - N/A   Scattered Clouds
3:53 PM 89.1 °F 97.0 °F 73.0 °F 59% 30.01 in 10.0 mi SE 6.9 mph - N/A   Partly Cloudy
4:53 PM 88.0 °F 94.7 °F 72.0 °F 59% 29.99 in 10.0 mi SSE 5.8 mph - N/A   Partly Cloudy
5:53 PM 86.0 °F 93.0 °F 73.0 °F 65% 29.99 in 10.0 mi SSE 6.9 mph - N/A   Clear
6:53 PM 82.9 °F 88.8 °F 73.0 °F 72% 29.99 in 10.0 mi Calm Calm - N/A   Clear
7:53 PM 78.1 °F - 73.9 °F 87% 30.00 in 10.0 mi Calm Calm - N/A   Clear
8:53 PM 77.0 °F - 73.9 °F 90% 30.02 in 10.0 mi Calm Calm - N/A   Clear
9:53 PM 77.0 °F - 73.0 °F 88% 30.05 in 10.0 mi Calm Calm - N/A   Clear
10:53 PM 75.0 °F - 73.0 °F 94% 30.06 in 10.0 mi Calm Calm - N/A   Partly Cloudy
11:53 PM 75.0 °F - 72.0 °F 90% 30.05 in 10.0 mi Calm Calm - N/A   Clear